User: anonymous   Login
Location: Halvern
(37.6252°N, 122.0525°W)
Time: 20:09:56
(UTC+00:00)
Language:

NOSS 0 Rocket - Orbit

View from above orbital plane
View from above orbital plane
View from above satellite
View from above satellite

Ground track
Ground track

The orbit data is extracted from the following two-line orbital elements,

1 05679U 71110B   24205.49135594  .00000093  00000-0  12652-3 0  9991
2 05679  69.9980  17.0080 0015159 284.2307  75.7109 13.85528814273267
Epoch (UTC): 23 July 2024 11:47:33
Eccentricity: 0.0015159
inclination: 69.9980°
perigee height: 933 km
apogee height: 955 km
right ascension of ascending node: 17.0080°
argument of perigee: 284.2307°
revolutions per day: 13.85528814
mean anomaly at epoch: 75.7109°
orbit number at epoch: 27326

The dashed part of the orbit path shows where the satellite is in the earth's shadow,  

DLR